Theta_e
327 328 326 326 327 327 330 328 327 326 324 325 323 322 322 321 319 314 311 310 311 310 311 311 311 314 315 314 309 308 306 305
327 326 326 327 328 328 327 326 327 326 321 319 318 319 319 316 313 311 308 308 308 306 306 307 310 310 310 311 309 307 305 304
326 325 325 325 326 328 327 327 326 325 324 321 318 317 315 312 309 307 307 307 308 308 306 306 306 309 309 307 308 307 304 301
325 325 325 325 325 327 327 325 323 323 320 317 317 314 314 313 311 309 308 308 307 304 301 301 301 306 306 309 306 302 301 299
323 323 323 323 325 327 326 324 323 321 318 317 316 315 314 312 310 308 307 306 302 300 299 299 299 300 303 305 307 302 300 299
322 322 321 323 325 323 320 320 319 318 315 314 314 314 313 312 310 307 304 303 301 301 301 297 296 298 301 303 304 301 301 300
322 321 321 321 321 320 318 316 315 312 312 314 315 315 314 314 314 312 307 303 302 302 301 298 296 296 300 302 302 301 300 298
321 322 321 320 320 319 317 314 313 312 315 316 314 314 315 316 314 310 309 306 304 303 301 300 303 296 299 300 303 303 300 300
323 322 321 321 320 317 313 312 314 313 315 316 316 317 315 310 308 306 305 303 302 301 302 303 303 299 297 298 299 299 301 300
323 322 321 320 317 314 310 310 311 312 314 315 314 312 313 310 307 305 304 303 302 304 306 305 304 305 301 298 298 298 300 299
322 319 316 315 313 313 310 310 313 314 313 312 311 311 311 309 307 307 305 306 305 306 307 304 306 304 300 300 299 298 300 297
319 317 313 312 313 312 312 313 311 311 311 314 312 310 310 311 311 310 308 306 305 306 304 302 301 298 297 297 298 297 298 297
318 315 313 312 313 312 312 313 311 310 314 312 311 309 308 305 301 301 302 299 298 299 298 298 299 297 297 295 295 295 294 295
313 313 313 312 313 312 313 313 314 312 310 308 309 308 306 302 299 296 295 294 294 294 296 296 295 295 295 294 295 294 294 294
313 314 314 314 314 313 315 315 316 312 308 308 306 305 304 302 297 298 295 295 295 295 294 295 295 295 294 294 295 294 295 297
315 314 314 314 314 314 317 318 315 313 309 304 308 308 307 304 303 302 302 297 295 295 296 295 294 294 294 294 294 295 296 296
316 315 314 315 316 313 316 314 314 313 306 306 305 304 302 302 302 303 303 301 299 299 297 295 295 294 293 293 293 296 294 294
309 305 309 312 312 315 315 310 308 306 305 303 302 303 301 301 302 302 301 302 302 299 298 295 295 295 295 295 296 297 296 295
307 307 310 310 311 314 312 310 308 307 305 304 302 305 304 304 306 306 301 301 298 295 293 293 290 295 296 296 296 295 295 294
308 308 308 309 311 312 311 310 310 310 305 304 302 302 306 307 301 298 299 297 296 294 294 293 286 294 295 295 295 296 296 296
Wind_Speed
12 9 7 9 7 6 9 10 7 7 7 9 8 8 9 9 9 8 7 7 8 8 9 9 8 7 7 7 7 8 8 7
14 10 9 8 6 8 9 8 9 8 7 8 8 8 8 8 8 8 7 7 8 8 7 7 7 7 7 6 7 8 7 6
16 12 9 7 7 10 9 9 7 8 8 7 8 8 9 9 9 7 7 8 7 7 8 9 7 7 5 7 7 6 7 6
15 12 11 9 8 10 8 8 7 8 6 6 8 8 10 8 7 7 7 7 9 8 7 7 8 5 11 11 8 6 6 6
16 13 10 7 9 10 10 8 8 8 9 8 8 8 8 7 7 6 6 6 7 6 6 7 7 6 8 10 8 5 6 5
14 11 8 9 11 10 10 9 8 9 8 7 6 8 7 6 6 6 6 5 6 4 6 5 6 5 6 8 9 5 4 4
12 10 11 12 11 11 10 8 7 7 7 8 6 6 7 6 6 7 5 5 3 2 3 5 5 5 9 8 8 5 3 3
13 13 13 13 9 10 11 8 8 7 6 6 5 6 5 4 5 4 2 3 4 3 4 4 6 5 9 6 6 2 3 0
13 13 11 10 9 10 10 6 6 6 6 6 6 5 6 6 4 2 4 4 4 3 2 1 1 3 4 6 5 2 3 2
14 12 10 8 9 10 8 7 6 6 6 6 6 6 4 4 5 3 4 5 4 3 3 2 1 1 4 3 4 2 2 3
12 12 10 8 7 9 10 7 6 6 6 6 5 6 5 5 5 4 2 4 4 4 4 3 3 2 3 7 9 6 5 2
12 12 10 9 8 7 8 7 6 7 7 7 6 5 4 3 2 1 2 3 3 2 2 1 2 1 2 3 4 4 6 4
11 11 10 9 8 8 7 7 7 6 6 6 6 5 5 5 4 3 3 3 1 3 2 1 2 1 2 1 1 2 2 3
7 8 10 8 9 8 7 7 7 6 6 5 5 5 4 3 4 4 8 4 3 7 7 5 0 0 1 1 4 5 6 6
11 12 11 8 7 7 7 7 6 7 7 6 4 5 3 5 4 4 5 2 5 4 4 5 5 4 1 0 3 6 4 1
10 8 9 8 7 7 7 7 7 7 6 8 6 6 6 5 5 4 3 4 3 2 4 4 4 4 1 2 6 3 3 4
11 10 9 7 7 6 6 7 8 8 6 4 5 5 4 4 3 4 5 4 4 3 1 1 3 4 2 4 2 2 0 1
9 6 8 10 8 7 6 7 7 6 6 9 6 5 4 4 3 3 1 4 4 4 3 2 1 2 1 2 2 2 3 3
8 8 10 10 9 8 7 8 7 5 4 5 7 4 4 4 2 4 3 4 5 4 3 4 5 3 3 3 3 3 3 1
7 7 7 8 8 9 7 7 6 5 5 5 4 4 3 4 2 3 5 5 5 5 4 3 5 2 4 3 3 3 3 2
Wind_Direction
140 144 137 122 125 103 108 117 103 90 85 89 80 79 82 79 72 63 58 62 61 54 60 57 51 59 71 69 72 75 69 59
144 149 149 136 124 110 106 101 104 99 91 92 87 76 77 79 71 63 60 60 65 62 55 57 56 67 70 80 84 78 72 60
144 149 142 132 126 123 120 123 120 117 115 105 106 103 93 85 78 73 74 74 65 53 61 58 51 60 66 76 85 79 78 61
138 140 143 140 129 128 123 121 115 123 93 92 98 96 94 93 94 85 75 78 86 77 61 65 65 50 54 64 77 77 65 56
140 146 145 140 125 121 129 121 122 117 113 99 102 105 102 105 102 95 90 82 74 67 62 61 58 53 46 79 77 80 76 59
139 133 125 112 106 114 120 120 125 118 111 110 110 111 101 94 100 101 104 103 100 85 74 62 63 29 21 109 98 88 76 69
137 131 124 116 123 129 123 112 110 99 110 117 117 119 123 137 141 144 133 115 108 96 109 82 78 23 356 147 120 133 100 89
135 132 122 120 125 124 114 121 128 126 126 125 121 126 126 110 107 121 123 129 122 111 86 76 73 44 10 40 145 126 147 219
127 121 127 134 125 119 118 122 134 134 121 127 128 127 128 122 120 99 102 98 99 99 116 63 98 87 38 53 72 109 187 269
120 123 126 124 118 120 122 135 161 140 134 127 142 137 124 125 125 83 107 138 143 195 195 211 206 71 29 19 69 71 152 134
123 125 118 115 124 138 135 164 155 149 138 162 155 151 150 155 147 165 158 186 190 222 207 208 216 75 28 13 26 53 76 92
127 121 125 134 138 134 142 157 154 149 165 173 140 142 138 161 162 162 120 111 142 65 67 123 149 99 8 9 8 3 356 359
135 136 140 145 144 149 161 161 146 142 144 135 148 141 143 115 73 80 104 50 240 143 121 103 149 296 267 222 212 272 292 315
126 124 139 153 156 169 176 167 154 144 135 141 155 140 138 114 121 100 51 67 60 89 156 137 61 135 328 261 247 276 308 307
148 156 166 164 161 169 178 170 157 156 145 159 157 142 153 150 163 164 159 17 27 37 75 124 152 149 125 165 311 319 292 95
154 154 166 169 166 184 191 175 168 158 149 164 163 164 160 183 198 196 155 162 163 235 246 201 158 144 174 6 351 35 27 28
159 169 175 162 175 173 160 146 152 145 141 161 158 147 165 177 174 188 194 153 175 198 232 307 239 232 308 326 16 105 228 295
133 160 149 147 147 148 141 124 128 134 144 150 142 152 153 172 200 197 198 180 183 168 198 226 178 109 238 265 265 266 239 248
138 142 147 147 153 153 139 141 149 151 144 160 165 150 176 209 217 196 193 143 145 165 194 205 179 156 183 199 201 210 202 223
110 106 145 157 159 141 152 152 166 159 164 174 182 193 214 196 176 146 151 146 159 167 194 158 159 165 180 205 208 227 237 145